ONEWEB-0048 (45153 NORAD) Tracking and Keplerian Element Data

This shows tracking and keplerian element data for the satellite.

Feedback or suggestion? Click here.




ElementValue
Catalog45153
NameONEWEB-0048
Epoch Orbit3860
Epoch Day304.83421803
Epoch Year2020
RAAN84.9387
Inclination87.9525
Eccentricity0.0020207
Argument of Perigee133.2795
Mean Anonmoly227.0032
Mean Motion13.2852469
Decay Rate3.1E-07
L11 45153U 20008Y 20304.83421803 .00000031 00000-0 37798-4 0 9998
L22 45153 87.9525 84.9387 0020207 133.2795 227.0032 13.28524690 38609

Live tracking and technical data element details for ONEWEB-0048 (NORAD 45153). ONEWEB-0048 can be tracked NOW for your location showing map with azimuth and elevation plus other details from your city location.

Track the satellite on the map from your city or location and see movement details for azimuth, elevation, latitude, longitude, range, height, and movement on the map or in text.







IsCatalogInMostPopularTable: catalog: 45153, numindb: 53
Update: records affected: 1



GetName: 45153 ONEWEB-0048

Hit Count: updated at: Sat, 31 Oct 2020 14:18:07 GMT